This demonstration page uses our WeatherBlox Daily Observations layout. Learn more.

Left ArrowRight Arrow

38.80484, -77.04692

Hourly Observations for May 12, 2021

Temp ( °F °C ) Dew Point ( °F °C ) Humidity (%) Winds ( mph kmh ) Pressure ( in mb ) Visibility ( mi km ) Precip ( " mm )
12:52 am 00:52 Cloudy 56 13.3 29 -1.7 36 36 NNW 10 17 30.22 1023 10 16 N/A
1:52 am 01:52 Cloudy 55 12.8 26 -3.3 33 33 N 15 24 30.22 1024 10 16 N/A
2:52 am 02:52 Cloudy 53 11.7 23 -5 31 31 NW 12 19 30.23 1024 10 16 N/A
3:52 am 03:52 Mostly Cloudy 51 10.6 24 -4.4 35 35 NW 13 20 30.25 1024 10 16 N/A
4:52 am 04:52 Cloudy 51 10.6 25 -3.9 36 36 NW 7 11 30.27 1025 10 16 N/A
5:52 am 05:52 Mostly Cloudy 50 10 26 -3.3 39 39 NW 10 17 30.27 1025 10 16 N/A
6:52 am 06:52 Mostly Cloudy 50 10 27 -2.8 41 41 NW 9 15 30.28 1025 10 16 N/A
7:52 am 07:52 Mostly Cloudy 51 10.6 29 -1.7 43 43 WNW 9 15 30.28 1026 10 16 N/A
8:52 am 08:52 Mostly Cloudy 53 11.7 32 undefined 45 45 NW 15 24 30.28 1025 10 16 N/A
9:52 am 09:52 Mostly Cloudy 54 12.2 32 undefined 43 43 NNW 14 22 30.28 1026 10 16 N/A
10:52 am 10:52 Mostly Cloudy 57 13.9 35 1.7 44 44 NNW 8 13 30.28 1026 10 16 N/A
11:52 am 11:52 Mostly Cloudy 59 15 36 2.2 42 42 NNW 7 11 30.29 1026 10 16 N/A
12:52 pm 12:52 Mostly Cloudy 61 16.1 37 2.8 41 41 NW 8 13 30.27 1025 10 16 N/A
1:52 pm 13:52 Mostly Cloudy 63 17.2 39 3.9 41 41 WNW 8 13 30.25 1024 10 16 N/A
2:52 pm 14:52 Mostly Cloudy 66 18.9 39 3.9 37 37 NNE 10 17 30.23 1024 10 16 N/A
3:52 pm 15:52 Mostly Cloudy 67 19.4 39 3.9 36 36 N 13 20 30.21 1023 10 16 N/A
4:52 pm 16:52 Mostly Cloudy 66 18.9 35 1.7 32 32 N 13 20 30.19 1022 10 16 N/A
5:52 pm 17:52 Mostly Cloudy 65 18.3 35 1.7 33 33 N 13 20 30.19 1022 10 16 N/A
6:52 pm 18:52 Mostly Cloudy 67 19.4 35 1.7 31 31 NE 10 17 30.19 1022 10 16 N/A
7:52 pm 19:52 Partly Cloudy 63 17.2 37 2.8 38 38 NNE 8 13 30.20 1023 10 16 N/A
8:52 pm 20:52 Mostly Clear 61 16.1 36 2.2 39 39 S 5 7 30.22 1023 10 16 N/A
9:52 pm 21:52 Mostly Clear 58 14.4 43 6.1 58 58 S 7 11 30.23 1024 10 16 N/A
10:52 pm 22:52 Mostly Clear 57 13.9 41 5 55 55 SW 3 6 30.23 1024 10 16 N/A
11:52 pm 23:52 Mostly Clear 57 13.9 41 5 55 55 SW 3 6 30.23 1024 10 16 N/A

Powered by AerisWeather